Simultaneous Nadir Overpasses (SNOs) Predictions

Prediction of SNOs between NOAA-20 and LANDSAT-8 Satellite Orbit:

Table of predicted SNOs for the next 14.0 days since TLE Epoch: 6/29/2018
Index Date (NOAA-20) Time (NOAA-20) Lat,Lon (NOAA-20) SZA (NOAA-20 ) Date (LANDSAT-8) Time (LANDSAT-8) Lat,Lon (LANDSAT-8) SZA (LANDSAT-8 ) Distance(km) Time Diff (sec)
1 06/30/2018 06:31:38 70.16, 78.16 46.97 06/30/2018 06:32:42 70.13, 78.13 46.94 3.12 64
2 06/30/2018 07:22:19 -70.03,-114.32 133.17 06/30/2018 07:22:12 -70.02,-114.39 133.17 2.80 7
3 06/30/2018 08:12:56 69.53, 53.72 46.32 06/30/2018 08:11:45 69.59, 52.65 46.42 42.27 71
4 07/02/2018 22:48:33 70.08,-165.96 47.09 07/02/2018 22:49:13 70.10,-166.03 47.10 3.30 40
5 07/02/2018 23:39:15 -70.00, 1.48 133.00 07/02/2018 23:38:43 -70.00, 1.45 133.00 1.28 32
6 07/05/2018 14:14:58 -70.87, 141.25 131.85 07/05/2018 14:16:06 -70.78, 143.20 132.02 72.14 68
7 07/05/2018 15:05:29 70.06, -50.17 47.30 07/05/2018 15:05:44 70.07, -50.20 47.31 1.39 15
8 07/05/2018 15:56:11 -69.98, 117.28 132.79 07/05/2018 15:55:14 -69.97, 117.29 132.79 1.35 57
9 07/08/2018 06:31:40 -70.16,-101.86 132.31 07/08/2018 06:32:47 -70.14,-101.86 132.34 2.01 67
10 07/08/2018 07:22:24 70.04, 65.63 47.57 07/08/2018 07:22:14 70.03, 65.63 47.56 1.08 10
11 07/08/2018 08:13:00 -69.64,-126.45 132.86 07/08/2018 08:11:48 -69.71,-127.18 132.75 29.50 72
12 07/10/2018 22:48:35 -70.09, 14.01 132.06 07/10/2018 22:49:18 -70.11, 13.97 132.05 2.56 43
13 07/10/2018 23:39:19 69.97,-178.50 47.82 07/10/2018 23:38:45 69.99,-178.55 47.85 2.85 34
14 07/13/2018 14:15:01 70.79, -38.66 49.06 07/13/2018 14:16:09 70.71, -36.90 48.90 65.32 68
15 07/13/2018 15:05:31 -70.07, 129.81 131.71 07/13/2018 15:05:49 -70.06, 129.79 131.72 1.21 18
16 07/13/2018 15:56:15 69.96, -62.71 48.18 07/13/2018 15:55:16 69.95, -62.73 48.18 1.31 59




NCC Satellite Simultaneous Nadir Overpasses (SNOs) Prediction Service
